This is the latest recevied weather packets stored in our database for station/object DJ2RF. If no packets are shown the sender has not sent any weather packets the latest 10 day(s).
| Time | Temp. | Humidity | Pressure | Rain* | Wind** | Luminosity | Snow |
|---|---|---|---|---|---|---|---|
| 1777939056 | 14.44° C | 83% | 1012.5 hPa | 0 mm | - | - | - |
| 1777934199 | 15° C | 82% | 1013.3 hPa | 0 mm | - | - | - |
| 1777932163 | 15° C | 80% | 1013.4 hPa | 0.25 mm | - | - | - |
| 1777930046 | 15.56° C | 77% | 1014.1 hPa | 0.51 mm | - | - | - |
| 1777929473 | 15.56° C | 75% | 1014.2 hPa | 0.25 mm | - | - | - |
| 1777928932 | 16.11° C | 75% | 1014.3 hPa | 0.25 mm | - | - | - |
| 1777927451 | 16.11° C | 75% | 1014.4 hPa | 0.25 mm | - | - | - |
| 1777925783 | 16.67° C | 69% | 1014.3 hPa | 0 mm | - | - | - |
| 1777925289 | 16.67° C | 73% | 1013.8 hPa | 0 mm | - | - | - |
| 1777924720 | 16.67° C | 74% | 1013.3 hPa | 0 mm | - | - | - |
| 1777923124 | 17.22° C | 70% | 1013.2 hPa | 0 mm | - | - | - |
| 1777922594 | 17.78° C | 70% | 1013 hPa | 0 mm | - | - | - |
| 1777922007 | 17.78° C | 68% | 1013 hPa | 0 mm | - | - | - |
| 1777919271 | 18.89° C | 60% | 1012.8 hPa | 0 mm | - | - | - |
| 1777918293 | 18.89° C | 59% | 1012.8 hPa | 0 mm | - | - | - |
| 1777917762 | 19.44° C | 58% | 1012.8 hPa | 0 mm | - | - | - |
| 1777903773 | 18.33° C | 51% | 1016.8 hPa | 0 mm | - | - | - |
| 1777883033 | 18.33° C | 51% | 1016.8 hPa | 0 mm | - | - | - |
| 1777882535 | 18.33° C | 50% | 1016.9 hPa | 0 mm | - | - | - |
| 1777881995 | 18.33° C | 52% | 1016.9 hPa | 0 mm | - | - | - |
| 1777881415 | 17.78° C | 52% | 1016.9 hPa | 0 mm | - | - | - |
| 1777880310 | 16.67° C | 54% | 1016.8 hPa | 0 mm | - | - | - |
| 1777879750 | 16.11° C | 56% | 1016.9 hPa | 0 mm | - | - | - |
| 1777879196 | 16.11° C | 57% | 1017.1 hPa | 0 mm | - | - | - |
| 1777878686 | 16.11° C | 57% | 1017 hPa | 0 mm | - | - | - |
* Rain latest hour (hover to see other rain measurements)
** Current wind speed in m/s (hover to see current wind gust speed)